Time,TemperatureF,DewpointF,PressureIn,WindDirection,WindDirectionDegrees,WindSpeedMPH,WindSpeedGustMPH,Humidity,HourlyPrecipIn,Conditions,Clouds,dailyrainin,SolarRadiationWatts/m^2,SoftwareType,DateUTC
2013-01-11 00:02:00,20.0,18.0,-100.00,ESE,103,0.0,0.0,92,0.00,,,-99.99,0.700000,,2013-01-11 09:02:00,
2013-01-11 00:12:00,20.0,18.0,-100.00,ESE,103,0.0,0.0,92,0.00,,,-99.99,0.700000,,2013-01-11 09:12:00,
2013-01-11 00:22:00,20.0,18.0,-100.00,ESE,103,0.0,0.0,92,0.00,,,-99.99,0.700000,,2013-01-11 09:22:00,
2013-01-11 00:32:00,20.0,18.0,-100.00,ESE,103,0.0,0.0,92,0.00,,,-99.99,0.700000,,2013-01-11 09:32:00,
2013-01-11 00:42:00,20.0,18.0,-100.00,ESE,103,0.0,0.0,92,0.00,,,-99.99,0.700000,,2013-01-11 09:42:00,
2013-01-11 01:02:00,20.0,18.0,-100.00,ESE,116,0.0,0.0,92,0.00,,,-99.99,0.700000,,2013-01-11 10:02:00,
2013-01-11 01:12:00,20.0,18.0,-100.00,ESE,116,0.0,0.0,92,0.00,,,-99.99,0.700000,,2013-01-11 10:12:00,
2013-01-11 01:22:00,20.0,18.0,-100.00,ESE,116,0.0,0.0,92,0.00,,,-99.99,0.700000,,2013-01-11 10:22:00,
2013-01-11 01:32:00,20.0,18.0,-100.00,ESE,116,0.0,0.0,92,0.00,,,-99.99,0.700000,,2013-01-11 10:32:00,
2013-01-11 01:42:00,20.0,18.0,-100.00,ESE,116,0.0,0.0,92,0.00,,,-99.99,0.700000,,2013-01-11 10:42:00,
2013-01-11 02:02:00,20.0,18.0,-100.00,ESE,117,0.0,0.0,92,0.00,,,-99.99,0.700000,,2013-01-11 11:02:00,
2013-01-11 02:12:00,20.0,18.0,-100.00,ESE,117,0.0,0.0,92,0.00,,,-99.99,0.700000,,2013-01-11 11:12:00,
2013-01-11 02:22:00,20.0,18.0,-100.00,ESE,117,0.0,0.0,92,0.00,,,-99.99,0.700000,,2013-01-11 11:22:00,
2013-01-11 02:32:00,20.0,18.0,-100.00,ESE,117,0.0,0.0,92,0.00,,,-99.99,0.700000,,2013-01-11 11:32:00,
2013-01-11 02:42:00,20.0,18.0,-100.00,ESE,117,0.0,0.0,92,0.00,,,-99.99,0.700000,,2013-01-11 11:42:00,
2013-01-11 03:02:00,20.0,18.0,-100.00,ESE,121,0.0,0.0,92,0.00,,,-99.99,0.700000,,2013-01-11 12:02:00,
2013-01-11 03:12:00,20.0,18.0,-100.00,ESE,121,0.0,0.0,92,0.00,,,-99.99,0.700000,,2013-01-11 12:12:00,
2013-01-11 03:22:00,20.0,18.0,-100.00,ESE,121,0.0,0.0,92,0.00,,,-99.99,0.700000,,2013-01-11 12:22:00,
2013-01-11 03:32:00,20.0,18.0,-100.00,ESE,121,0.0,0.0,92,0.00,,,-99.99,0.700000,,2013-01-11 12:32:00,
2013-01-11 03:42:00,20.0,18.0,-100.00,ESE,121,0.0,0.0,92,0.00,,,-99.99,0.700000,,2013-01-11 12:42:00,
2013-01-11 04:02:00,21.0,19.0,-100.00,ESE,108,0.0,0.0,92,0.00,,,-99.99,0.700000,,2013-01-11 13:02:00,
2013-01-11 04:12:00,21.0,19.0,-100.00,ESE,108,0.0,0.0,92,0.00,,,-99.99,0.700000,,2013-01-11 13:12:00,
2013-01-11 04:22:00,21.0,19.0,-100.00,ESE,108,0.0,0.0,92,0.00,,,-99.99,0.700000,,2013-01-11 13:22:00,
2013-01-11 04:32:00,21.0,19.0,-100.00,ESE,108,0.0,0.0,92,0.00,,,-99.99,0.700000,,2013-01-11 13:32:00,
2013-01-11 04:42:00,21.0,19.0,-100.00,ESE,108,0.0,0.0,92,0.00,,,-99.99,0.700000,,2013-01-11 13:42:00,
2013-01-11 05:03:00,21.0,19.0,-100.00,ESE,105,0.0,0.0,92,0.00,,,-99.99,0.700000,,2013-01-11 14:03:00,
2013-01-11 05:12:00,21.0,19.0,-100.00,ESE,105,0.0,0.0,92,0.00,,,-99.99,0.700000,,2013-01-11 14:12:00,
2013-01-11 05:22:00,21.0,19.0,-100.00,ESE,105,0.0,0.0,92,0.00,,,-99.99,0.700000,,2013-01-11 14:22:00,
2013-01-11 05:33:00,21.0,19.0,-100.00,ESE,105,0.0,0.0,92,0.00,,,-99.99,0.700000,,2013-01-11 14:33:00,
2013-01-11 05:42:00,21.0,19.0,-100.00,ESE,105,0.0,0.0,92,0.00,,,-99.99,0.700000,,2013-01-11 14:42:00,
2013-01-11 06:03:00,21.0,19.0,-100.00,ESE,112,0.0,0.0,93,0.00,,,-99.99,0.700000,,2013-01-11 15:03:00,
2013-01-11 06:12:00,21.0,19.0,-100.00,ESE,112,0.0,0.0,93,0.00,,,-99.99,0.700000,,2013-01-11 15:12:00,
2013-01-11 06:23:00,21.0,19.0,-100.00,ESE,112,0.0,0.0,93,0.00,,,-99.99,0.700000,,2013-01-11 15:23:00,
2013-01-11 06:32:00,21.0,19.0,-100.00,ESE,112,0.0,0.0,93,0.00,,,-99.99,0.700000,,2013-01-11 15:32:00,
2013-01-11 06:42:00,21.0,19.0,-100.00,ESE,112,0.0,0.0,93,0.00,,,-99.99,0.700000,,2013-01-11 15:42:00,
2013-01-11 07:02:00,21.0,20.0,-100.00,ESE,102,0.0,0.0,93,0.00,,,-99.99,0.700000,,2013-01-11 16:02:00,
2013-01-11 07:12:00,21.0,20.0,-100.00,ESE,102,0.0,0.0,93,0.00,,,-99.99,0.700000,,2013-01-11 16:12:00,
2013-01-11 07:22:00,21.0,20.0,-100.00,ESE,102,0.0,0.0,93,0.00,,,-99.99,0.700000,,2013-01-11 16:22:00,
2013-01-11 07:32:00,21.0,20.0,-100.00,ESE,102,0.0,0.0,93,0.00,,,-99.99,0.700000,,2013-01-11 16:32:00,
2013-01-11 07:42:00,21.0,20.0,-100.00,ESE,102,0.0,0.0,93,0.00,,,-99.99,0.700000,,2013-01-11 16:42:00,
2013-01-11 08:03:00,22.0,20.0,-100.00,ESE,107,0.0,0.0,93,0.00,,,-99.99,0.700000,,2013-01-11 17:03:00,
2013-01-11 08:12:00,22.0,20.0,-100.00,ESE,107,0.0,0.0,93,0.00,,,-99.99,0.700000,,2013-01-11 17:12:00,
2013-01-11 08:22:00,22.0,20.0,-100.00,ESE,107,0.0,0.0,93,0.00,,,-99.99,0.700000,,2013-01-11 17:22:00,
2013-01-11 08:33:00,22.0,20.0,-100.00,ESE,107,0.0,0.0,93,0.00,,,-99.99,0.700000,,2013-01-11 17:33:00,
2013-01-11 08:42:00,22.0,20.0,-100.00,ESE,107,0.0,0.0,93,0.00,,,-99.99,0.700000,,2013-01-11 17:42:00,
2013-01-11 09:03:00,22.0,20.0,-100.00,East,101,0.0,0.0,93,0.00,,,-99.99,0.700000,,2013-01-11 18:03:00,
2013-01-11 09:12:00,22.0,20.0,-100.00,East,101,0.0,0.0,93,0.00,,,-99.99,0.700000,,2013-01-11 18:12:00,
2013-01-11 09:23:00,22.0,20.0,-100.00,East,101,0.0,0.0,93,0.00,,,-99.99,0.700000,,2013-01-11 18:23:00,
2013-01-11 09:32:00,22.0,20.0,-100.00,East,101,0.0,0.0,93,0.00,,,-99.99,0.700000,,2013-01-11 18:32:00,
2013-01-11 09:42:00,22.0,20.0,-100.00,East,101,0.0,0.0,93,0.00,,,-99.99,0.700000,,2013-01-11 18:42:00,
2013-01-11 10:02:00,23.0,22.0,-100.00,ESE,107,0.0,0.0,94,0.00,,,-99.99,0.900000,,2013-01-11 19:02:00,
2013-01-11 10:12:00,23.0,22.0,-100.00,ESE,107,0.0,0.0,94,0.00,,,-99.99,0.900000,,2013-01-11 19:12:00,
2013-01-11 10:22:00,23.0,22.0,-100.00,ESE,107,0.0,0.0,94,0.00,,,-99.99,0.900000,,2013-01-11 19:22:00,
2013-01-11 10:32:00,23.0,22.0,-100.00,ESE,107,0.0,0.0,94,0.00,,,-99.99,0.900000,,2013-01-11 19:32:00,
2013-01-11 10:42:00,23.0,22.0,-100.00,ESE,107,0.0,0.0,94,0.00,,,-99.99,0.900000,,2013-01-11 19:42:00,
2013-01-11 11:02:00,22.0,21.0,-100.00,East,96,0.0,0.0,93,0.00,,,-99.99,10.200000,,2013-01-11 20:02:00,
2013-01-11 11:12:00,22.0,21.0,-100.00,East,96,0.0,0.0,93,0.00,,,-99.99,10.200000,,2013-01-11 20:12:00,
2013-01-11 11:22:00,22.0,21.0,-100.00,East,96,0.0,0.0,93,0.00,,,-99.99,10.200000,,2013-01-11 20:22:00,
2013-01-11 11:32:00,22.0,21.0,-100.00,East,96,0.0,0.0,93,0.00,,,-99.99,10.200000,,2013-01-11 20:32:00,
2013-01-11 11:42:00,22.0,21.0,-100.00,East,96,0.0,0.0,93,0.00,,,-99.99,10.200000,,2013-01-11 20:42:00,
2013-01-11 12:03:00,22.0,20.0,-100.00,ESE,107,0.0,0.0,93,0.00,,,-99.99,25.500000,,2013-01-11 21:03:00,
2013-01-11 12:12:00,22.0,20.0,-100.00,ESE,107,0.0,0.0,93,0.00,,,-99.99,25.500000,,2013-01-11 21:12:00,
2013-01-11 12:22:00,22.0,20.0,-100.00,ESE,107,0.0,0.0,93,0.00,,,-99.99,25.500000,,2013-01-11 21:22:00,
2013-01-11 12:32:00,22.0,20.0,-100.00,ESE,107,0.0,0.0,93,0.00,,,-99.99,25.500000,,2013-01-11 21:32:00,
2013-01-11 12:42:00,22.0,20.0,-100.00,ESE,107,0.0,0.0,93,0.00,,,-99.99,25.500000,,2013-01-11 21:42:00,
2013-01-11 13:02:00,23.0,21.0,-100.00,ESE,111,0.0,0.0,94,0.00,,,-99.99,39.099998,,2013-01-11 22:02:00,
2013-01-11 13:12:00,23.0,21.0,-100.00,ESE,111,0.0,0.0,94,0.00,,,-99.99,39.099998,,2013-01-11 22:12:00,
2013-01-11 13:22:00,23.0,21.0,-100.00,ESE,111,0.0,0.0,94,0.00,,,-99.99,39.099998,,2013-01-11 22:22:00,
2013-01-11 13:32:00,23.0,21.0,-100.00,ESE,111,0.0,0.0,94,0.00,,,-99.99,39.099998,,2013-01-11 22:32:00,
2013-01-11 13:42:00,23.0,21.0,-100.00,ESE,111,0.0,0.0,94,0.00,,,-99.99,39.099998,,2013-01-11 22:42:00,
2013-01-11 14:02:00,23.0,22.0,-100.00,ESE,114,0.0,0.0,94,0.00,,,0.00,43.599998,,2013-01-11 23:02:00,
2013-01-11 14:12:00,23.0,22.0,-100.00,ESE,114,0.0,0.0,94,0.00,,,0.00,43.599998,,2013-01-11 23:12:00,
2013-01-11 14:22:00,23.0,22.0,-100.00,ESE,114,0.0,0.0,94,0.00,,,0.00,43.599998,,2013-01-11 23:22:00,
2013-01-11 14:32:00,23.0,22.0,-100.00,ESE,114,0.0,0.0,94,0.00,,,0.00,43.599998,,2013-01-11 23:32:00,
2013-01-11 14:42:00,23.0,22.0,-100.00,ESE,114,0.0,0.0,94,0.00,,,0.00,43.599998,,2013-01-11 23:42:00,
2013-01-11 15:02:00,23.0,22.0,-100.00,ESE,110,0.0,0.0,94,0.00,,,0.00,43.799999,,2013-01-12 00:02:00,
2013-01-11 15:12:00,23.0,22.0,-100.00,ESE,110,0.0,0.0,94,0.00,,,0.00,43.799999,,2013-01-12 00:12:00,
2013-01-11 15:22:00,23.0,22.0,-100.00,ESE,110,0.0,0.0,94,0.00,,,0.00,43.799999,,2013-01-12 00:22:00,
2013-01-11 15:32:00,23.0,22.0,-100.00,ESE,110,0.0,0.0,94,0.00,,,0.00,43.799999,,2013-01-12 00:32:00,
2013-01-11 15:42:00,23.0,22.0,-100.00,ESE,110,0.0,0.0,94,0.00,,,0.00,43.799999,,2013-01-12 00:42:00,
2013-01-11 16:02:00,24.0,22.0,-100.00,ENE,71,0.0,0.0,94,0.00,,,0.00,24.299999,,2013-01-12 01:02:00,
2013-01-11 16:12:00,24.0,22.0,-100.00,ENE,71,0.0,0.0,94,0.00,,,0.00,24.299999,,2013-01-12 01:12:00,
2013-01-11 16:22:00,24.0,22.0,-100.00,ENE,71,0.0,0.0,94,0.00,,,0.00,24.299999,,2013-01-12 01:22:00,
2013-01-11 16:32:00,24.0,22.0,-100.00,ENE,71,0.0,0.0,94,0.00,,,0.00,24.299999,,2013-01-12 01:32:00,
2013-01-11 16:42:00,24.0,22.0,-100.00,ENE,71,0.0,0.0,94,0.00,,,0.00,24.299999,,2013-01-12 01:42:00,
2013-01-11 17:12:00,23.0,22.0,-100.00,ESE,105,0.0,0.0,94,0.00,,,0.00,8.100000,,2013-01-12 02:12:00,
2013-01-11 17:22:00,23.0,22.0,-100.00,ESE,105,0.0,0.0,94,0.00,,,0.00,8.100000,,2013-01-12 02:22:00,
2013-01-11 17:32:00,23.0,22.0,-100.00,ESE,105,0.0,0.0,94,0.00,,,0.00,8.100000,,2013-01-12 02:32:00,
2013-01-11 17:42:00,23.0,22.0,-100.00,ESE,105,0.0,0.0,94,0.00,,,0.00,8.100000,,2013-01-12 02:42:00,
2013-01-11 18:02:00,23.0,22.0,-100.00,ESE,113,0.0,0.0,94,0.00,,,0.00,0.800000,,2013-01-12 03:02:00,
2013-01-11 18:12:00,23.0,22.0,-100.00,ESE,113,0.0,0.0,94,0.00,,,0.00,0.800000,,2013-01-12 03:12:00,
2013-01-11 18:22:00,23.0,22.0,-100.00,ESE,113,0.0,0.0,94,0.00,,,0.00,0.800000,,2013-01-12 03:22:00,
2013-01-11 18:32:00,23.0,22.0,-100.00,ESE,113,0.0,0.0,94,0.00,,,0.00,0.800000,,2013-01-12 03:32:00,
2013-01-11 18:42:00,23.0,22.0,-100.00,ESE,113,0.0,0.0,94,0.00,,,0.00,0.800000,,2013-01-12 03:42:00,
2013-01-11 19:02:00,23.0,22.0,-100.00,SE,130,0.0,0.0,94,0.00,,,0.00,0.700000,,2013-01-12 04:02:00,
2013-01-11 19:12:00,23.0,22.0,-100.00,SE,130,0.0,0.0,94,0.00,,,0.00,0.700000,,2013-01-12 04:12:00,
2013-01-11 19:22:00,23.0,22.0,-100.00,SE,130,0.0,0.0,94,0.00,,,0.00,0.700000,,2013-01-12 04:22:00,
2013-01-11 19:32:00,23.0,22.0,-100.00,SE,130,0.0,0.0,94,0.00,,,0.00,0.700000,,2013-01-12 04:32:00,
2013-01-11 19:42:00,23.0,22.0,-100.00,SE,130,0.0,0.0,94,0.00,,,0.00,0.700000,,2013-01-12 04:42:00,
2013-01-11 20:03:00,23.0,22.0,-100.00,SSE,147,0.0,0.0,94,0.00,,,0.00,0.700000,,2013-01-12 05:03:00,
2013-01-11 20:12:00,23.0,22.0,-100.00,SSE,147,0.0,0.0,94,0.00,,,0.00,0.700000,,2013-01-12 05:12:00,
2013-01-11 20:22:00,23.0,22.0,-100.00,SSE,147,0.0,0.0,94,0.00,,,0.00,0.700000,,2013-01-12 05:22:00,
2013-01-11 20:32:00,23.0,22.0,-100.00,SSE,147,0.0,0.0,94,0.00,,,0.00,0.700000,,2013-01-12 05:32:00,
2013-01-11 20:42:00,23.0,22.0,-100.00,SSE,147,0.0,0.0,94,0.00,,,0.00,0.700000,,2013-01-12 05:42:00,
2013-01-11 21:02:00,23.0,22.0,-100.00,SSE,148,0.0,0.0,94,0.00,,,-99.99,0.700000,,2013-01-12 06:02:00,
2013-01-11 21:12:00,23.0,22.0,-100.00,SSE,148,0.0,0.0,94,0.00,,,-99.99,0.700000,,2013-01-12 06:12:00,
2013-01-11 21:22:00,23.0,22.0,-100.00,SSE,148,0.0,0.0,94,0.00,,,-99.99,0.700000,,2013-01-12 06:22:00,
2013-01-11 21:32:00,23.0,22.0,-100.00,SSE,148,0.0,0.0,94,0.00,,,-99.99,0.700000,,2013-01-12 06:32:00,
2013-01-11 21:42:00,23.0,22.0,-100.00,SSE,148,0.0,0.0,94,0.00,,,-99.99,0.700000,,2013-01-12 06:42:00,
2013-01-11 22:02:00,23.0,22.0,-100.00,SSE,151,0.0,0.0,94,0.00,,,0.00,0.700000,,2013-01-12 07:02:00,
2013-01-11 22:12:00,23.0,22.0,-100.00,SSE,151,0.0,0.0,94,0.00,,,0.00,0.700000,,2013-01-12 07:12:00,
2013-01-11 22:22:00,23.0,22.0,-100.00,SSE,151,0.0,0.0,94,0.00,,,0.00,0.700000,,2013-01-12 07:22:00,
2013-01-11 22:32:00,23.0,22.0,-100.00,SSE,151,0.0,0.0,94,0.00,,,0.00,0.700000,,2013-01-12 07:32:00,
2013-01-11 22:42:00,23.0,22.0,-100.00,SSE,151,0.0,0.0,94,0.00,,,0.00,0.700000,,2013-01-12 07:42:00,
2013-01-11 23:02:00,24.0,22.0,-100.00,SSE,148,0.0,0.0,94,0.00,,,0.00,0.700000,,2013-01-12 08:02:00,
2013-01-11 23:11:00,24.0,22.0,-100.00,SSE,148,0.0,0.0,94,0.00,,,0.00,0.700000,,2013-01-12 08:11:00,
2013-01-11 23:22:00,24.0,22.0,-100.00,SSE,148,0.0,0.0,94,0.00,,,0.00,0.700000,,2013-01-12 08:22:00,
2013-01-11 23:32:00,24.0,22.0,-100.00,SSE,148,0.0,0.0,94,0.00,,,0.00,0.700000,,2013-01-12 08:32:00,
2013-01-11 23:42:00,24.0,22.0,-100.00,SSE,148,0.0,0.0,94,0.00,,,0.00,0.700000,,2013-01-12 08:42:00,